Tracking 29892 objects as of 21-Nov-2024
HD Live streaming from Space Station
objects crossing your sky now

BREEZE-M R/B

Track BREEZE-M R/B now!


NORAD ID: 33280
Int'l Code: 2008-039C
Perigee: 4,307.3 km
Apogee: 35,919.5 km
Inclination: 22.4 °
Period: 714.9 minutes
Semi major axis: 26484 km
RCS: 8.2222 m2 (large)
Launch date: August 18, 2008
Source: Commonwealth of Independent States (former USSR) (CIS)
Launch site: TYURATAM MISSILE AND SPACE COMPLEX (TTMTR)

Note: This is a ROCKET BODY
Your satellite tracking list
Your tracking list is empty




NASA's NSSDC Master Catalog

Two Line Element Set (TLE):
1 33280U 08039C   24325.71244812 -.00000198  00000-0  00000-0 0  9990
2 33280  22.4413  92.4446 5968071 197.3837 127.1457  2.01426710119570
Source of the keplerian elements: AFSPC